timestamp,surface_pressure_avg,surface_temp_avg,battery_voltage,lat,long
2021-02-01 00:09:01+00:00,325.4496,2.1,12.65,47.84626,-54.09684
2021-02-01 00:19:01+00:00,333.2463,2.1,12.65,47.84626,-54.09684
2021-02-01 00:29:01+00:00,338.983,2.1,12.65,47.84626,-54.09684
2021-02-01 00:39:01+00:00,342.5030000000001,2.09,12.65,47.84626,-54.09684
2021-02-01 00:49:01+00:00,348.798,2.08,12.65,47.84626,-54.09684
2021-02-01 00:59:01+00:00,354.6496,2.09,12.65,47.84626,-54.09684
2021-02-01 01:09:01+00:00,356.7363,2.09,12.65,47.84626,-54.09684
2021-02-01 01:19:01+00:00,357.3296,2.08,12.65,47.84626,-54.09684
2021-02-01 01:29:01+00:00,361.6312,2.1,12.65,47.84626,-54.09684
2021-02-01 01:39:01+00:00,364.3563,2.1,12.65,47.84626,-54.09684
2021-02-01 01:49:01+00:00,361.6612,2.1,12.65,47.84626,-54.09684
2021-02-01 01:59:01+00:00,361.6612,2.08,12.65,47.84626,-54.09684
2021-02-01 02:09:01+00:00,361.7946,2.07,12.65,47.84626,-54.09684
2021-02-01 02:19:01+00:00,359.5296,2.0,12.65,47.84626,-54.09684
2021-02-01 02:29:01+00:00,357.9913,2.06,12.65,47.84626,-54.09684
2021-02-01 02:39:01+00:00,357.9112,2.08,12.65,47.84626,-54.09684
2021-02-01 02:49:01+00:00,354.8662,2.0,12.65,47.84626,-54.09684
2021-02-01 02:59:01+00:00,349.0347,2.0,12.65,47.84626,-54.09684
2021-02-01 03:09:01+00:00,346.3963,2.0,12.65,47.84626,-54.09684
2021-02-01 03:19:01+00:00,344.458,2.06,12.57,47.84626,-54.09684
2021-02-01 03:29:01+00:00,338.8879,2.1,12.57,47.84626,-54.09684
2021-02-01 03:39:01+00:00,334.0063,2.12,12.57,47.84626,-54.09684
2021-02-01 03:49:01+00:00,332.7795,2.19,12.57,47.84626,-54.09684
2021-02-01 03:59:01+00:00,330.4495,2.2,12.57,47.84626,-54.09684
2021-02-01 04:09:01+00:00,322.3264,2.2,12.57,47.84626,-54.09684
2021-02-01 04:19:01+00:00,317.6246,2.1,12.57,47.84626,-54.09684
2021-02-01 04:29:01+00:00,313.678,2.1,12.57,47.84626,-54.09684
2021-02-01 04:39:01+00:00,303.783,2.1,12.57,47.84626,-54.09684
2021-02-01 04:49:01+00:00,293.8896,2.06,12.57,47.84626,-54.09684
2021-02-01 04:59:01+00:00,288.033,2.09,12.57,47.84626,-54.09684
2021-02-01 05:09:01+00:00,279.7864,2.1,12.57,47.84626,-54.09684
2021-02-01 05:19:01+00:00,268.0514,2.0,12.57,47.84626,-54.09684
2021-02-01 05:29:01+00:00,258.638,2.0,12.57,47.84626,-54.09684
2021-02-01 05:39:01+00:00,249.7564,2.1,12.57,47.84626,-54.09684
2021-02-01 05:49:01+00:00,240.7814,2.1,12.57,47.84626,-54.09684
2021-02-01 05:59:01+00:00,233.1331,2.07,12.57,47.84626,-54.09684
2021-02-01 06:09:01+00:00,227.0547,2.2,12.57,47.84626,-54.09684
2021-02-01 06:19:01+00:00,220.0965,2.2,12.57,47.84626,-54.09684
2021-02-01 06:29:01+00:00,214.6698,2.2,12.57,47.84626,-54.09684
2021-02-01 06:39:01+00:00,210.0531,2.2,12.57,47.84626,-54.09684
2021-02-01 06:49:01+00:00,205.0431,2.2,12.57,47.84626,-54.09684
2021-02-01 06:59:01+00:00,198.9881,2.2,12.57,47.84626,-54.09684
2021-02-01 07:09:01+00:00,193.5148,2.1,12.57,47.84626,-54.09684
2021-02-01 07:19:01+00:00,192.4498,2.1,12.57,47.84626,-54.09684
2021-02-01 07:29:01+00:00,192.6398,2.1,12.57,47.84626,-54.09684
2021-02-01 07:39:01+00:00,188.9381,2.1,12.57,47.84626,-54.09684
2021-02-01 07:49:01+00:00,187.1214,2.1,12.57,47.84626,-54.09684
2021-02-01 07:59:01+00:00,189.8548,2.12,12.57,47.84626,-54.09684
2021-02-01 08:09:01+00:00,190.6198,2.19,12.57,47.84626,-54.09684
2021-02-01 08:19:01+00:00,189.3131,2.2,12.49,47.84626,-54.09684
2021-02-01 08:29:01+00:00,192.5581,2.2,12.49,47.84626,-54.09684
2021-02-01 08:39:01+00:00,197.4215,2.2,12.49,47.84626,-54.09684
2021-02-01 08:49:01+00:00,198.0431,2.2,12.49,47.84626,-54.09684
2021-02-01 08:59:01+00:00,198.1281,2.23,12.49,47.84626,-54.09684
2021-02-01 09:09:01+00:00,202.7315,2.27,12.49,47.84626,-54.09684
2021-02-01 09:19:01+00:00,210.0681,2.28,12.49,47.84626,-54.09684
2021-02-01 09:29:01+00:00,215.2598,2.24,12.49,47.84626,-54.09684
2021-02-01 09:39:01+00:00,218.1714,2.2,12.49,47.84626,-54.09684
2021-02-01 09:49:01+00:00,222.5915,2.2,12.49,47.84626,-54.09684
2021-02-01 09:59:01+00:00,227.9131,2.2,12.49,47.84626,-54.09684
2021-02-01 10:09:01+00:00,233.6164,2.2,12.49,47.84626,-54.09684
2021-02-01 10:19:01+00:00,239.2747,2.18,12.49,47.84626,-54.09684
2021-02-01 10:29:01+00:00,245.1264,2.13,12.49,47.84626,-54.09684
2021-02-01 10:39:01+00:00,250.4831,2.14,12.49,47.84626,-54.09684
2021-02-01 10:49:01+00:00,256.6514,2.16,12.49,47.84626,-54.09684
2021-02-01 10:59:01+00:00,261.8814,2.19,12.49,47.84626,-54.09684
2021-02-01 11:09:01+00:00,266.7564,2.2,12.49,47.84626,-54.09684
2021-02-01 11:19:01+00:00,273.0748,2.16,12.49,47.84626,-54.09684
2021-02-01 11:29:01+00:00,280.2348,2.0,12.49,47.84626,-54.09684
2021-02-01 11:39:01+00:00,286.4464,2.03,12.49,47.84626,-54.09684
2021-02-01 11:49:01+00:00,293.318,2.0,12.49,47.84626,-54.09684
2021-02-01 11:59:01+00:00,301.7913,2.0,12.49,47.84626,-54.09684
2021-02-01 12:09:01+00:00,309.2414,1.98,12.49,47.84626,-54.09684
2021-02-01 12:19:01+00:00,316.298,1.93,12.57,47.84626,-54.09684
2021-02-01 12:29:01+00:00,327.1796,1.9,12.57,47.84626,-54.09684
2021-02-01 12:39:01+00:00,336.7163,1.9,12.57,47.84626,-54.09684
2021-02-01 12:49:01+00:00,342.0598,1.9,12.57,47.84626,-54.09684
2021-02-01 12:59:01+00:00,348.5046,1.9,12.57,47.84626,-54.09684
2021-02-01 13:09:01+00:00,355.3295,1.91,12.57,47.84626,-54.09684
2021-02-01 13:19:01+00:00,361.0863,1.94,13.44,47.84626,-54.09684
2021-02-01 13:29:01+00:00,365.4628,1.97,13.44,47.84626,-54.09684
2021-02-01 13:39:01+00:00,371.2563,1.99,13.44,47.84626,-54.09684
2021-02-01 13:49:01+00:00,374.7446,2.0,13.44,47.84626,-54.09684
2021-02-01 13:59:01+00:00,375.7178,2.0,13.44,47.84626,-54.09684
2021-02-01 14:09:01+00:00,378.74800000000016,2.0,13.44,47.84626,-54.09684
2021-02-01 14:19:01+00:00,381.1744,2.03,14.08,47.84626,-54.09684
2021-02-01 14:29:01+00:00,380.7362,2.01,14.08,47.84626,-54.09684
2021-02-01 14:39:01+00:00,381.5081,2.04,14.08,47.84626,-54.09684
2021-02-01 14:49:01+00:00,381.9395,2.05,14.08,47.84626,-54.09684
2021-02-01 14:59:01+00:00,380.1163,2.05,14.08,47.84626,-54.09684
2021-02-01 15:09:01+00:00,376.4295,2.05,14.08,47.84626,-54.09684
2021-02-01 15:19:01+00:00,372.5396,2.04,14.32,47.84626,-54.09684
2021-02-01 15:29:01+00:00,367.078,2.0,14.32,47.84626,-54.09684
2021-02-01 15:39:01+00:00,362.3946,2.0,14.32,47.84626,-54.09684
2021-02-01 15:49:01+00:00,362.2329,2.0,14.32,47.84626,-54.09684
2021-02-01 15:59:01+00:00,358.4163,2.0,14.32,47.84626,-54.09684
2021-02-01 16:09:01+00:00,350.6564,2.0,14.32,47.84626,-54.09684
2021-02-01 16:19:01+00:00,346.9579,2.0,14.48,47.84626,-54.09684
2021-02-01 16:29:01+00:00,342.8295,2.0,14.48,47.84626,-54.09684
2021-02-01 16:39:01+00:00,334.653,2.0,14.48,47.84626,-54.09684
2021-02-01 16:49:01+00:00,324.6763,2.0,14.48,47.84626,-54.09684
2021-02-01 16:59:01+00:00,318.8646,2.0,14.48,47.84626,-54.09684
2021-02-01 17:09:01+00:00,311.1647,2.0,14.48,47.84626,-54.09684
2021-02-01 17:19:01+00:00,299.2747,2.0,14.08,47.84626,-54.09684
2021-02-01 17:29:01+00:00,291.4263,2.0,14.08,47.84626,-54.09684
2021-02-01 17:39:01+00:00,284.4231,2.0,14.08,47.84626,-54.09684
2021-02-01 17:49:01+00:00,274.5831,2.0,14.08,47.84626,-54.09684
2021-02-01 17:59:01+00:00,261.9298,2.0,14.08,47.84626,-54.09684
2021-02-01 18:09:01+00:00,252.0447,2.0,14.08,47.84626,-54.09684
2021-02-01 18:19:01+00:00,241.593,2.0,13.84,47.84626,-54.09684
2021-02-01 18:29:01+00:00,231.4664,2.0,13.84,47.84626,-54.09684
2021-02-01 18:39:01+00:00,222.2198,2.0,13.84,47.84626,-54.09684
2021-02-01 18:49:01+00:00,212.2131,2.0,13.84,47.84626,-54.09684
2021-02-01 18:59:01+00:00,205.5565,2.0,13.84,47.84626,-54.09684
2021-02-01 19:09:01+00:00,201.4898,2.0,13.84,47.84626,-54.09684
2021-02-01 19:19:01+00:00,194.5048,2.0,13.53,47.84626,-54.09684
2021-02-01 19:29:01+00:00,186.8881,2.0,13.53,47.84626,-54.09684
2021-02-01 19:39:01+00:00,184.4098,2.0,13.53,47.84626,-54.09684
2021-02-01 19:49:01+00:00,184.3082,2.0,13.53,47.84626,-54.09684
2021-02-01 19:59:01+00:00,181.6781,2.0,13.53,47.84626,-54.09684
2021-02-01 20:09:01+00:00,180.3515,2.0,13.53,47.84626,-54.09684
2021-02-01 20:19:01+00:00,182.7265,2.0,13.21,47.84626,-54.09684
2021-02-01 20:29:01+00:00,183.6981,2.0,13.21,47.84626,-54.09684
2021-02-01 20:39:01+00:00,183.2265,2.0,13.21,47.84626,-54.09684
2021-02-01 20:49:01+00:00,187.4632,2.0,13.21,47.84626,-54.09684
2021-02-01 20:59:01+00:00,194.1281,2.0,13.21,47.84626,-54.09684
2021-02-01 21:09:01+00:00,195.7948,2.0,13.21,47.84626,-54.09684
2021-02-01 21:19:01+00:00,197.5281,2.0,12.81,47.84626,-54.09684
2021-02-01 21:29:01+00:00,203.8914,2.0,12.81,47.84626,-54.09684
2021-02-01 21:39:01+00:00,209.1664,2.0,12.81,47.84626,-54.09684
2021-02-01 21:49:01+00:00,211.8948,2.0,12.81,47.84626,-54.09684
2021-02-01 21:59:01+00:00,217.9948,2.0,12.81,47.84626,-54.09684
2021-02-01 22:09:01+00:00,225.4648,2.0,12.81,47.84626,-54.09684
2021-02-01 22:19:01+00:00,231.3181,2.0,12.65,47.84626,-54.09684
2021-02-01 22:29:01+00:00,237.1815,2.0,12.65,47.84626,-54.09684
2021-02-01 22:39:01+00:00,241.8147,2.0,12.65,47.84626,-54.09684
2021-02-01 22:49:01+00:00,245.2998,2.0,12.65,47.84626,-54.09684
2021-02-01 22:59:01+00:00,248.8881,2.0,12.65,47.84626,-54.09684
2021-02-01 23:09:01+00:00,254.2014,2.0,12.65,47.84626,-54.09684
2021-02-01 23:19:01+00:00,260.7081,2.0,12.65,47.84626,-54.09684
2021-02-01 23:29:01+00:00,263.4765,2.0,12.65,47.84626,-54.09684
2021-02-01 23:39:01+00:00,264.8198,2.0,12.65,47.84626,-54.09684
2021-02-01 23:49:01+00:00,271.1281,2.0,12.65,47.84626,-54.09684
2021-02-01 23:59:01+00:00,279.868,2.03,12.65,47.84626,-54.09684
